Regional Weather Roundup
Issued by NWS

Home | Current Version | Previous Version | Graphics & Text | Print | Product List | Glossary On
Versions: 1 2 3 4 5 6 7 8 9 10 11 12 13 14 15 16 17 18 19 20 21 22 23 24 25 26 27 28 29 30 31 32 33 34 35 36 37 38 39 40 41 42 43 44 45 46 47 48 49 50
000
ASUS45 KTFX 260919
RWRMT
MONTANA HOURLY WEATHER ROUNDUP
NATIONAL WEATHER SERVICE GREAT FALLS MT
219 AM MST FRI DEC 26 2014

NOTE: "FAIR" INDICATES FEW OR NO CLOUDS BELOW 12000 FEET WITH NO
SIGNIFICANT WEATHER AND/OR OBSTRUCTIONS TO VISIBILITY.

* THESE STATIONS ARE NOT UNDER NWS QUALITY CONTROL. THEY DO NOT
   REPORT WEATHER SUCH AS PRECIPITATION OR FOG.

MTZ001>007-043-261000-
WEST OF THE DIVIDE
CITY           SKY/WX    TMP DP  RH WIND       PRES   REMARKS
KALISPELL      LGT SNOW  25  23  92 CALM      30.03S VSB 3
MISSOULA       CLOUDY    27  23  85 CALM      30.05S
BUTTE          CLOUDY    10   9  96 CALM      29.95R
MULLAN PASS    HAZE      21  16  81 NW9G17    29.91F VSB 2    WCI  11
* ESSEX        N/A       22  20  92 N/A        N/A
* HAMILTON APT CLOUDY    27  19  72 SE7       30.03S WCI  19
* LIBBY APT    PTCLDY    25  21  85 CALM      30.07S
* LINCOLN      N/A       24  18  78 S4G10      N/A
* LOOKOUT PASS N/A       23  21  92 NE6        N/A   WCI  16
* POLSON       N/A       25  24  96 N/A        N/A
* RONAN APT    CLOUDY    28  25  89 N/A        N/A
* SEELEY LAKE  N/A       20  18  92 N/A        N/A
* THOMP F APT  CLOUDY    15   3  59 NW6G23     N/A   WCI   6
$$

MTZ008-052>055-261000-
SOUTHWEST MONTANA
CITY           SKY/WX    TMP DP  RH WIND       PRES   REMARKS
BOZEMAN        CLOUDY     9   7  91 CALM      30.00R
DILLON         CLOUDY     9   3  76 SW8       29.95S WCI  -3
* W YELLOWSTON PTCLDY   -10 -17  71 N/A        N/A
* THREE FORKS  PTCLDY    10  10 100 N/A        N/A
* TWIN BRIDGES PTCLDY    10   1  67 SE7        N/A   WCI  -1
* BOULDER HILL N/A       17  10  74 SW1        N/A
* MONIDA PASS  N/A        4   1  87 W7         N/A   WCI  -8
* RAYNOLDS PAS N/A        8 -34  12 N2         N/A
* WHITEHALL    N/A       12   8  84 NE1G7      N/A
* WISE RIVER   N/A       10   6  84 NW2        N/A
$$

MTZ009>010-012-014-046-048-049-054-261000-
EAST SLOPES AND CENTRAL MONTANA
CITY           SKY/WX    TMP DP  RH WIND       PRES   REMARKS
CUT BANK       CLOUDY    23  18  81 NW22      29.93R WCI   8
GREAT FALLS    CLOUDY    19  14  81 SW7       29.94S WCI  10
HELENA         CLOUDY    18  14  84 CALM      29.99S
MALMSTROM AFB  CLOUDY    19  16  88 SW10      29.97S WCI   8
* CONRAD       MOCLDY    19  18  96 W7         N/A   WCI  10
* DEARBORN     N/A       12   9  88 SW1        N/A
* EAST GLACIER N/A       22  13  68 W2         N/A
* MONARCH      N/A       11   6  80 S6G11      N/A   WCI   1
* PENDROY      N/A       24  13  63 NW13       N/A   WCI  12
* SWEET GRASS  N/A       20  20 100 NW21       N/A   WCI   4
* WHITE SULPH  N/A        6   1  80 N2G8       N/A
$$

MTZ011-013-016-021-035-040-045-047-050-051-261000-
NORTH CENTRAL MONTANA
CITY           SKY/WX    TMP DP  RH WIND       PRES   REMARKS
HAVRE          CLOUDY    21  18  88 W8        29.97S WCI  11
LEWISTOWN      CLEAR      7   3  83 SE7       29.94S WCI  -5
* N BAR RANCH  CLEAR      3  -2  79 CALM      29.95S
* CHINOOK      CLOUDY    23  19  85 E6        29.99S WCI  16
* CHESTER      N/A       11   8  88 SW1        N/A
* DENTON       N/A        4  -1  79 S8         N/A   WCI  -9
* GEYSER       N/A       17   8  68 W7         N/A   WCI   7
* JUDITH GAP   N/A        5   3  91 S1         N/A
* LOMA         N/A       13  11  92 E2         N/A
$$

MTZ017>020-022>027-061-062-261000-
NORTHEAST MONTANA
CITY           SKY/WX    TMP DP  RH WIND       PRES   REMARKS
GLASGOW        CLOUDY    18  12  77 E13       30.06S WCI   5
GLENDIVE       CLOUDY    19  14  81 NE3       30.08R
JORDAN         PTCLDY    25  18  75 W5        30.03S WCI  19
SIDNEY         PTCLDY    12   9  88 CALM      30.12R
WOLF POINT     CLOUDY    16  10  77 NE3       30.11S
* BEAVER HILL  N/A       11   9  92 N/A        N/A
* CIRCLE       N/A       21  18  88 N/A        N/A
* LINDSAY DVD  N/A       20  16  84 W3         N/A
* NAVAJO       N/A       13  10  88 NW2        N/A
* PLENTYWOOD A CLEAR     10   7  88 N3        30.08S
* POPLAR APT   CLEAR     10   7  88 N/A       30.11S
* SACO         N/A       22  18  85 E4         N/A
$$

MTZ028>042-056>058-261000-
SOUTHCENTRAL AND SOUTHEAST MONTANA
CITY           SKY/WX    TMP DP  RH WIND       PRES   REMARKS
BAKER          CLOUDY    19  14  81 N5        30.05R WCI  12
BILLINGS       FOG       21  18  88 SW5       29.99S WCI  14
LIVINGSTON     PTCLDY     0  -6  75 NW10      29.97R WCI -16
MILES CITY     CLOUDY    21  18  88 SE5       30.05S WCI  14
* BIG TIMBER A PTCLDY     7   3  83 W7        29.96S WCI  -5
* FORSYTH APT  CLEAR     25  18  75 SE3       30.05S
* LAUREL APT   PTCLDY    10   3  73 SW5        N/A   WCI   1
* ROUNDUP APT  CLEAR     14   7  73 S5         N/A   WCI   6
* ALZADA       N/A       20  16  84 N/A        N/A
* HYSHAM       N/A       22  16  78 SW1        N/A
* LAME DEER    N/A       16  14  92 W3         N/A
* REED POINT   N/A        6   4  91 W2G7       N/A
* ROSCOE HILL  N/A       14   8  77 SE6        N/A   WCI   5
$$

REGIONAL REPORTS...DAKOTAS
CITY           SKY/WX    TMP DP  RH WIND       PRES   REMARKS
WILLISTON      LGT SNOW  14   9  80 NW12      30.11S
DICKINSON      CLOUDY    18  10  71 NW14      30.03R WCI   4
BEACH          CLEAR     14  10  84 CALM      30.06S
CROSBY         LGT SNOW   7   7 100 NW10      30.12S WCI  -7
TIOGA          LGT SNOW   9   9 100 NW12G18   30.11R WCI  -6
WATFORD CITY   LGT SNOW  16  10  77 NW9       30.08R WCI   5
BISMARCK       CLOUDY    23  18  81 N12       30.08R WCI  11
GRAND FORKS    CLOUDY    25  19  78 N15G22    30.05R WCI  13
FARGO          CLOUDY    25  19  78 N14       30.03R WCI  13
BUFFALO SD     PTCLDY    19  14  81 NW13      29.96R WCI   6
RAPID CITY     CLOUDY    21  18  88 N16       30.00R WCI   7
$$

REGIONAL REPORTS...WYOMING/IDAHO/WASHINGTON
CITY           SKY/WX    TMP DP  RH WIND       PRES   REMARKS
GILLETTE       CLOUDY    18  16  92 N9        29.96R WCI   7
SHERIDAN       CLOUDY    19  16  88 CALM      29.99R
CODY           CLOUDY    18  16  92 CALM      29.92R
YELLOWSTONE LA MOCLDY     3  -2  79 CALM      29.81F
SALMON         CLOUDY    23  18  81 CALM      30.02S
MULLAN PASS    HAZE      21  16  81 NW9G17    29.91S VSB 2    WCI  11
SAND POINT     CLEAR     28  28 100 CALM      30.10R
SPOKANE        MOCLDY    28  27  96 CALM      30.09F
$$

REGIONAL REPORTS...ALBERTA
CITY           SKY/WX    TMP DP  RH WIND       PRES   REMARKS
CALGARY        LGT SNOW  21  16  81 NW8       30.02R WCI  11
LETHBRIDGE     LGT SNOW  25  23  92 NW12G20   30.01R VSB 1    WCI  14
MEDICINE HAT   LGT SNOW  16  14  92 N8        30.01R WCI   5
EDMONTON       FAIR       7   3  83 W6        30.05S WCI  -4
WATERTON GATE  N/A       23  19  85 NE7        N/A   WCI  15
CARDSTON       N/A       23  23 100 N8         N/A   WCI  14
MILK RIVER     N/A       21  19  92 N25        N/A   WCI   4
$$

REGIONAL REPORTS...SASKATCHEWAN
CITY           SKY/WX    TMP DP  RH WIND       PRES   REMARKS
SWIFT CURRENT  CLOUDY     7   5  91 SE7       30.00S WCI  -5
REGINA         CLOUDY     0  -4  83 NW6       30.12R WCI -12
VAL MARIE      N/A       18  16  92 S7         N/A   WCI   9
ASSINIBOIA     N/A        3   1  91 E1         N/A

$$



USA.gov is the U.S. government's official web portal to all federal, state and local government web resources and services.